Погода в Плесе

Россия / Саратовская область     51°17′34″N   47°46′39″E
темп.,
°C
ветер,
м/с
пор.,
м/с
влажн.,
%
обл.,
%
осадки,
мм/ч
давл.,
гПа
погр.,
м
28 февраля, вс
вс2801:00−11сз61192100 0.1 1004465
04:00−13сз71289100 0.2 1007518
07:00−16сз6128944 0.0 1010326
10:00−15сз6118734 0.0 1011383
13:00−13сз698716 0.0 1012417
16:00−12сз598927 0.0 1013502
19:00−15зсз449423 0.0 101563
22:00−16сз449411 0.0 101764
1 марта, пн
пн101:00−17сз34930 0.0 101844
04:00−18сз34922 0.0 102033
07:00−19ссз349288 0.0 102132
10:00−17сз349255 0.0 1024132
13:00−14сз34890 0.0 1025233
16:00−13зсз35920 0.0 1025249
19:00−16з33950 0.0 102521
22:00−16зюз34950 0.0 102542
2 марта, вт
вт201:00−16зюз45940 0.0 102482
04:00−14зюз499634 0.0 1022147
07:00−10юз61294100 0.0 1019293
10:00−6зюз91494100 0.2 1016527
13:00−2зюз91495100 0.9 1013742
16:00−1зюз91497100 2.1 1010709
19:000зюз81497100 1.9 1008691
22:000зюз61196100 2.8 1007515
3 марта, ср
ср301:000з4798100 0.5 1006330
04:00−1сз3598100 1.1 1006184
07:00−4ссз3494100 0.1 100577
10:00−4ссз489298 0.1 1007219
13:00−3ссз479196 0.0 1008348
16:00−3сз499150 0.0 1009470
19:00−5зсз479337 0.0 1010111
22:00−4сз5109364 0.0 1012257
4 марта, чт
чт401:00−8сз479359 0.0 101394
04:00−10зсз459230 0.0 101477
07:00−11з45940 0.0 101581
10:00−8зюз510900 0.0 1016237
13:00−4зюз814900 0.0 1014549
16:00−1юз9158648 0.0 1012897
19:00−1юз8178498 0.0 1010715
22:00−2юз8188149 0.0 1009587